Location: El Cardoso de la Sierra
(41.0967°N, 3.4652°W)
Time: 23:08:17
(UTC+00:00)

Daily predictions for brighter satellites

Satellite Brightness Start Highest point End
(mag) Time Altitude Azimuth Time Altitude Azimuth Time Altitude Azimuth
Exosat Rocket 4.5 20:13:49 10° NNW 20:19:16 66° WSW 20:26:35 10° S
Cosmos 1743 Rocket 3.9 20:15:35 10° N 20:19:47 46° ENE 20:23:54 10° SSE
Cosmos 1470 2.4 20:17:33 10° N 20:21:07 84° E 20:24:36 10° S
Resurs 01 Rocket 3.4 20:17:32 10° SSW 20:21:27 32° W 20:25:24 10° NNW
CZ-2C R/B 4.1 20:19:03 10° SSW 20:22:09 34° W 20:25:17 10° NNW
NOSS 2-2 (E) 4.0 20:18:02 10° NNW 20:22:14 64° NE 20:28:07 10° SE
ERS-1 Rocket 3.7 20:18:13 10° SE 20:22:49 39° ENE 20:27:27 10° N
Cosmos 1605 Rocket 4.1 20:18:17 10° N 20:24:19 57° E 20:30:16 10° SSE
Cosmos 2219 Rocket 3.5 20:20:22 10° NW 20:25:29 38° WSW 20:30:35 10° S
USA 186 2.2 20:24:58 10° S 20:27:40 51° W 20:30:24 10° NNW
CSL-04 Rocket 4.0 20:22:33 10° S 20:27:46 67° WSW 20:33:03 10° NNW
Cosmos 1066 Rocket 4.4 20:27:49 10° S 20:33:39 88° E 20:39:33 10° N
Cosmos 2237 Rocket 2.8 20:38:20 10° NNW 20:43:47 46° ENE 20:48:43 13° SE
USA 305 2.5 20:44:11 10° SW 20:48:06 62° SE 20:51:45 10° NE
USA 215 3.7 20:43:03 10° SSE 20:49:25 56° SW 20:55:49 10° NW
Cosmos 1666 Rocket 4.1 20:47:09 10° N 20:51:25 43° ENE 20:54:55 14° SSE
Meteor 2-10 Rocket 4.1 20:46:00 10° N 20:51:32 49° ENE 20:56:11 13° SSE
Okean-O 2.6 20:50:15 11° SSE 20:54:27 71° ENE 20:58:49 10° N
MOS 1 4.5 20:50:49 10° S 20:56:30 77° WSW 21:02:11 10° NNW
Cosmos 1110 Rocket 4.1 20:53:02 10° NNW 20:58:16 76° WSW 21:03:14 11° SSE
NOSS 3-4 (A) 3.3 20:53:55 10° SW 20:59:13 77° NW 21:04:58 10° NNE
NOSS 3-4 (C) 3.3 20:54:02 10° SW 20:59:19 78° NW 21:05:04 10° NNE
Lacrosse 4 Rocket 3.2 20:57:56 10° N 21:01:12 21° NE 21:04:06 12° E
Cosmos 1633 Rocket 3.5 20:57:24 10° N 21:01:33 44° ENE 21:04:31 17° SE
Cosmos 1331 Rocket 4.1 20:57:11 10° NNW 21:02:19 75° WSW 21:07:02 12° S
Cosmos 1818 3.6 20:57:00 10° SSW 21:02:20 64° ESE 21:07:45 10° NE
COSMOS 2428 3.4 20:57:42 10° NNW 21:03:14 51° WSW 21:08:42 10° S
SAR-Lupe-2 4.3 21:04:36 19° SE 21:06:43 39° ENE 21:10:06 10° N
Cosmos 1328 Rocket 3.5 21:06:09 10° S 21:10:30 77° E 21:14:55 10° N
IKONOS-2 4.5 21:06:31 10° NNE 21:10:38 59° ESE 21:14:18 13° S
Cosmos 2297 Rocket 2.7 21:06:21 10° SW 21:11:58 65° WNW 21:17:37 10° NNE
Cosmos 614 Rocket 3.9 21:06:52 10° SSW 21:12:02 85° ESE 21:17:12 10° NNE
Cosmos 1455 1.6 21:09:51 10° N 21:12:30 49° E 21:13:31 30° SE
Ariane Rocket 3.7 21:09:58 18° SE 21:13:17 39° ENE 21:17:59 10° N
ARIANE 6 FM1 Upper Stage 2.6 21:09:28 10° NW 21:13:37 85° NE 21:16:17 22° SE
Meteor 2-19 Rocket 4.5 21:08:51 10° S 21:14:54 84° W 21:21:00 10° N
SPOT 3 Rocket 4.0 21:14:36 19° SE 21:17:58 47° ENE 21:22:55 10° N
Cosmos 1470 Rocket 3.9 21:17:54 10° N 21:22:06 47° E 21:24:22 24° SE
Cosmos 1000 Rocket 4.5 21:17:45 11° S 21:23:37 69° E 21:29:52 10° NNE
Cosmos 1758 3.4 21:21:08 10° N 21:24:46 49° E 21:26:20 28° SE
Meteor 1-13 Rocket 4.4 21:21:24 13° S 21:26:35 64° E 21:32:25 10° NNE
Cosmos 1302 Rocket 4.0 21:23:26 10° NNW 21:28:43 82° ENE 21:32:02 23° SSE
ATLAS CENTAUR R/B 1.8 21:25:47 10° NNW 21:29:25 42° NE 21:31:05 26° ESE
Helios 1A 4.3 21:28:37 10° N 21:32:16 37° WNW 21:35:53 10° SW
Cosmos 2173 Rocket 4.0 21:27:24 10° N 21:33:34 69° E 21:37:34 23° SSE
PSLV R/B 3.8 21:33:05 34° ESE 21:34:02 45° ENE 21:37:12 10° N
Cosmos 1992 Rocket 4.4 21:30:34 10° N 21:35:37 49° ENE 21:38:16 26° SE
Cosmos 1452 Rocket 4.5 21:31:02 10° NNW 21:35:58 42° WSW 21:40:08 14° S
Terra 2.7 21:32:51 13° S 21:36:49 45° W 21:41:21 10° NNW
USA 276 1.5 21:34:54 10° NW 21:36:45 62° NNW 21:36:45 62° NNW
Cosmos 1727 Rocket 4.2 21:30:57 10° SSW 21:37:06 70° W 21:43:16 10° N
Cosmos 1515 Rocket 3.6 21:34:51 25° SSE 21:37:18 63° E 21:41:42 10° NNE
SL-16 R/B 3.1 21:33:17 10° N 21:38:32 37° ENE 21:41:38 21° ESE
IRS-1C Rocket 4.0 21:35:12 22° SSE 21:38:38 90° ENE 21:43:55 10° NNW
Cosmos 2227 Rocket 2.2 21:34:52 10° SSW 21:40:30 82° WNW 21:46:11 10° NNE
RESURS DK-1 2.1 21:38:46 17° SSW 21:41:47 75° ESE 21:45:47 10° NNE
Cosmos 2263 Rocket 2.3 21:41:20 20° S 21:45:07 54° ESE 21:50:39 10° NNE
COSMOS 2455 2.9 21:40:59 10° NNW 21:47:02 79° WSW 21:50:27 27° SSE
Okean O Rocket 3.7 21:44:55 10° SW 21:48:10 21° W 21:51:27 10° NW
Cosmos 2100 Rocket 3.9 21:43:09 10° N 21:49:21 86° W 21:53:20 23° S
Spot 2 Rocket 4.1 21:47:54 19° S 21:51:23 52° W 21:56:21 10° NNW
Iridium 51 4.5 21:49:09 10° N 21:52:40 42° E 21:53:07 40° ESE
Cosmos 1980 4.5 21:48:36 10° NW 21:53:56 45° WSW 21:57:28 20° SSW
Cosmos 1437 Rocket 2.4 21:55:31 42° S 21:56:38 88° WNW 22:00:11 10° N
Cosmos 1725 Rocket 4.0 21:52:24 10° N 21:58:42 68° E 22:01:55 30° SSE
Cosmos 921 Rocket 4.4 21:55:41 10° SW 21:59:36 37° WNW 22:03:38 10° N
Cosmos 2219 3.2 22:02:23 24° S 22:05:56 70° ESE 22:11:40 10° NNE
Geosat 3.9 22:06:21 10° NNE 22:11:23 86° ESE 22:14:36 23° SSW
Cosmos 909 Rocket 4.5 22:03:28 10° NNW 22:11:27 67° NE 22:14:56 30° SE
USA 290 2.8 22:14:13 46° NE 22:14:13 46° NE 22:16:43 10° NNE
COBE Rocket 3.9 22:08:32 10° NNE 22:13:34 67° E 22:15:11 41° SSE
Cosmos 2082 3.7 22:12:58 34° S 22:15:25 62° ESE 22:21:04 10° NNE
Cosmos 2123 Rocket 4.2 22:11:21 19° SSW 22:16:02 69° W 22:22:17 10° N
SL-8 R/B 4.4 22:15:24 10° WNW 22:20:04 50° NNE 22:22:54 22° E
ARIANE 5 R/B 4.2 22:20:49 21° E 22:21:47 22° ENE 22:25:14 10° NNE
SL-4 R/B 1.8 22:21:17 41° SW 22:22:36 73° SE 22:26:40 10° ENE
Cosmos 2237 Rocket 3.8 22:22:58 10° NW 22:27:30 25° WSW 22:30:32 16° SW
Cosmos 1140 Rocket 3.4 22:26:48 47° SSE 22:28:09 65° ESE 22:33:14 10° NNE
Cosmos 1953 2.1 22:27:00 10° N 22:30:44 67° E 22:30:44 67° E
Cosmos 1703 4.3 22:34:57 29° ENE 22:34:57 29° ENE 22:37:14 10° NNE
Cosmos 2061 Rocket 3.9 22:30:59 10° N 22:37:17 87° E 22:39:35 42° S
Lacrosse 4 Rocket 2.2 22:35:20 10° NW 22:39:16 38° WSW 22:39:42 37° SW
Cosmos 1892 4.4 22:43:00 18° NE 22:43:00 18° NE 22:44:06 10° NNE
Cosmos 1023 Rocket 4.3 22:40:16 44° SSW 22:41:56 87° WNW 22:47:03 10° NNE
Cosmos 407 Rocket 3.5 22:50:55 55° SE 22:51:21 57° ESE 22:56:21 10° NNE
CZ-4C R/B 3.7 22:50:16 10° NNE 22:52:42 47° NNE 22:52:42 47° NNE
Cosmos 2228 Rocket 3.3 22:54:32 53° E 22:54:32 53° E 22:58:49 10° NNE
Cosmos 1844 Rocket 3.2 22:54:47 39° ESE 22:54:58 39° ESE 23:00:12 10° NE
IRIDIUM 104 4.2 22:55:45 58° S 22:56:48 85° E 23:02:02 10° N
Cosmos 1447 Rocket 4.4 22:55:55 42° SSW 22:58:09 83° W 23:04:22 10° N
Cosmos 2251 Rocket 4.0 22:59:05 42° ESE 22:59:10 42° ESE 23:04:12 10° NNE
Cosmos 1844 4.3 22:59:50 37° ESE 22:59:50 37° ESE 23:04:52 10° NE
GP-B 4.1 22:56:04 10° NNW 23:00:10 40° W 23:01:12 34° WSW
Cosmos 1707 Rocket 3.4 23:05:00 80° E 23:05:00 80° E 23:09:15 10° N
ATLAS CENTAUR R/B 3.5 23:02:50 10° WNW 23:04:28 15° W 23:04:28 15° W
USA 234 4.4 22:59:52 10° ENE 23:03:50 24° ESE 23:03:50 24° ESE
Cosmos 2084 Rocket 4.5 23:01:45 10° NW 23:05:01 33° W 23:05:01 33° W
USA 59 Rocket 2.7 23:04:20 10° NNE 23:05:34 11° NE 23:06:53 10° ENE
IRIDIUM 114 4.3 23:04:53 57° SSW 23:05:57 79° W 23:11:12 10° N
Landsat 5 3.8 23:06:13 10° NNE 23:09:56 54° ENE 23:09:56 54° ENE
Cosmos 540 Rocket 4.1 23:08:44 10° N 23:13:36 42° ENE 23:14:32 38° E
ALOS 2 3.3 23:14:27 41° ENE 23:14:37 41° ENE 23:18:44 10° N
IRIDIUM 103 4.5 23:14:01 51° SW 23:15:07 65° W 23:20:19 10° N
Cosmos 1733 Rocket 3.0 23:17:42 10° NNW 23:21:58 73° W 23:21:58 73° W
SL-16 R/B 3.3 23:17:34 10° NW 23:22:29 31° WSW 23:23:29 30° WSW
ATLAS 2AS CENTAUR R/B 3.4 23:25:05 36° ESE 23:25:30 36° ESE 23:31:47 10° NE
BREEZE-M DEB (TANK) 4.4 23:13:23 10° SW 23:28:12 34° ESE 23:30:24 10° ENE
Cosmos 2263 Rocket 4.2 23:24:49 10° WSW 23:29:21 24° NW 23:33:54 10° N
Cosmos 1464 Rocket 4.0 23:23:21 10° N 23:29:38 70° E 23:31:00 54° SE
CZ-2C R/B 4.3 23:29:00 10° N 23:33:23 50° WNW 23:34:03 46° WSW
Cosmos 2034 Rocket 4.4 23:30:25 10° N 23:36:31 53° ENE 23:37:59 44° ESE
SeaSat 1 3.7 23:37:33 27° E 23:39:07 33° NE 23:43:28 10° N
ASTEX 1 4.1 23:36:09 10° N 23:40:51 44° WNW 23:41:43 40° WSW
Cosmos 1908 Rocket 4.0 23:38:02 10° N 23:42:02 52° ENE 23:42:02 52° ENE
Cosmos 1943 3.2 23:38:37 10° NNW 23:44:16 63° WSW 23:44:50 60° SW
Aureole 3 Rocket 3.7 23:41:09 10° NNW 23:43:25 42° NNW 23:43:25 42° NNW
MetOp-A 4.4 23:48:12 44° W 23:48:14 44° W 23:52:41 10° NNW
Cosmos 1271 Rocket 3.7 23:50:19 42° N 23:50:19 42° N 23:52:50 10° N
SL-12 R/B(2) 4.4 23:48:03 43° SSE 23:49:50 50° ESE 23:58:32 10° NE
Cosmos 1763 Rocket 3.4 23:47:06 10° NNW 23:52:13 68° WSW 23:52:18 68° WSW
Okean 1-7 3.9 23:56:02 40° WNW 23:56:02 40° WNW 23:59:46 10° N
